This is the latest recevied weather packets stored in our database for station/object KN6WGU. If no packets are shown the sender has not sent any weather packets the latest 10 day(s).
| Time | Temp. | Humidity | Pressure | Rain* | Wind** | Luminosity | Snow |
|---|---|---|---|---|---|---|---|
| 1777595633 | 10° C | 62% | 1007.4 hPa | 0 mm | - | 1 W/m² | - |
| 1777595329 | 10° C | 61% | 1007.4 hPa | 0 mm | - | 1 W/m² | - |
| 1777595026 | 10° C | 59% | 1007.3 hPa | 0 mm | - | 3 W/m² | - |
| 1777594723 | 10.56° C | 59% | 1007.4 hPa | 0 mm | - | 4 W/m² | - |
| 1777594418 | 10.56° C | 55% | 1007.4 hPa | 0 mm | - | 6 W/m² | - |
| 1777594114 | 10.56° C | 56% | 1007.5 hPa | 0 mm | - | 7 W/m² | - |
| 1777593810 | 10.56° C | 56% | 1007.6 hPa | 0 mm | - | 8 W/m² | - |
| 1777593507 | 10.56° C | 53% | 1007.6 hPa | 0 mm | - | 10 W/m² | - |
| 1777593201 | 10.56° C | 54% | 1007.5 hPa | 0 mm | - | 12 W/m² | - |
| 1777592900 | 11.11° C | 53% | 1007.4 hPa | 0 mm | - | 15 W/m² | - |
| 1777592597 | 11.11° C | 54% | 1007.6 hPa | 0 mm | - | 29 W/m² | - |
| 1777592293 | 11.11° C | 54% | 1007.4 hPa | 0 mm | - | 26 W/m² | - |
| 1777591988 | 11.67° C | 54% | 1007.6 hPa | 0 mm | - | 34 W/m² | - |
| 1777591684 | 11.67° C | 52% | 1007.5 hPa | 0 mm | - | 33 W/m² | - |
| 1777591380 | 11.67° C | 52% | 1007.5 hPa | 0 mm | - | 30 W/m² | - |
| 1777591076 | 12.22° C | 53% | 1007.6 hPa | 0 mm | - | 32 W/m² | - |
| 1777590772 | 12.22° C | 52% | 1007.5 hPa | 0 mm | - | 46 W/m² | - |
| 1777590468 | 12.78° C | 51% | 1007.5 hPa | 0 mm | - | 74 W/m² | - |
| 1777590165 | 12.78° C | 49% | 1007.4 hPa | 0 mm | - | 87 W/m² | - |
| 1777589861 | 12.78° C | 50% | 1007.6 hPa | 0 mm | - | 93 W/m² | - |
| 1777589557 | 11.67° C | 53% | 1007.6 hPa | 0 mm | - | 76 W/m² | - |
| 1777589255 | 11.67° C | 53% | 1007.6 hPa | 0 mm | - | 106 W/m² | - |
| 1777588953 | 11.67° C | 55% | 1007.5 hPa | 0 mm | - | 64 W/m² | - |
| 1777588648 | 11.67° C | 53% | 1007.5 hPa | 0 mm | - | 42 W/m² | - |
| 1777588344 | 11.67° C | 53% | 1007.7 hPa | 0 mm | - | 52 W/m² | - |
* Rain latest hour (hover to see other rain measurements)
** Current wind speed in m/s (hover to see current wind gust speed)